[Date Prev][Date Next][Thread Prev][Thread Next] - [Date Index][Thread Index][Author Index]
2 Line ISS Keps 11-26
- Subject: [sarex] 2 Line ISS Keps 11-26
- From: "Dave Larsen PhD" <doc@xxxxxxxxxxx>
- Date: Mon, 26 Nov 2001 03:11:11 -0800
ISS
1 25544U 98067A 01330.19595510 .00058661 00000-0 65080-3 0 7606
2 25544 51.6414 353.7975 0010039 21.8715 62.1918 15.62307174172361
----
Via the sarex mailing list at AMSAT.ORG courtesy of AMSAT-NA.
To unsubscribe, send "unsubscribe sarex" to Majordomo@amsat.org
AMSAT Home